User: anonymous   Login
Location: Veyrier
(46.1830°N, 6.2000°E)
Time: 07:57:47
(UTC+01:00)
Language:

Iridium 98 - Orbit

View from above orbital plane
View from above orbital plane
View from above satellite
View from above satellite

Ground track
Ground track

The orbit data is extracted from the following two-line orbital elements,

1 27451U 02031B   18016.73510646  .00000182  00000-0  57768-4 0  9991
2 27451  86.3969 292.8910 0002118  70.2273 289.9151 14.34224190821912
Epoch (UTC): 16 January 2018 17:38:33
Eccentricity: 0.0002118
inclination: 86.3969°
perigee height: 776 km
apogee height: 779 km
right ascension of ascending node: 292.8910°
argument of perigee: 70.2273°
revolutions per day: 14.34224190
mean anomaly at epoch: 289.9151°
orbit number at epoch: 82191

The dashed part of the orbit path shows where the satellite is in the earth's shadow,  

DLR